When you browse on this site, cookies collect data to enhance your experience and personalize the content and advertising you see.
Visit our Privacy Policy to learn more. By continuing to use the site, you agree to this use of cookies and data.
  • In Latvia
  • List of Countries
  • For 7 days
  • Water Temperature
  • Weather Map
  • Weather Widgets
  • user-avatar
    Login

    Hourly Weather Pune

    Today, 20 February, Thursday

    Time Temperature Precipitation Wind Pressure Humidity
    00:00 +24°C° 0 mm 1 mps 712 mmHg 47%
    01:00 +24°C° 0 mm 1 mps 711 mmHg 48%
    02:00 +23°C° 0 mm 1 mps 711 mmHg 49%
    03:00 +23°C° 0 mm 1 mps 711 mmHg 49%
    04:00 +20°C° 0 mm 0 mps 710 mmHg 49%
    05:00 +20°C° 0 mm 0 mps 710 mmHg 51%
    06:00 +22°C° 0 mm 0 mps 711 mmHg 46%
    07:00 +24°C° 0 mm 0 mps 712 mmHg 42%
    08:00 +25°C° 0 mm 0 mps 713 mmHg 37%
    09:00 +29°C° 0 mm 1 mps 713 mmHg 33%
    10:00 +31°C° 0 mm 1 mps 714 mmHg 29%
    11:00 +34°C° 0 mm 2 mps 714 mmHg 25%
    12:00 +35°C° 0 mm 2 mps 713 mmHg 23%
    13:00 +36°C° 0 mm 2 mps 712 mmHg 21%
    14:00 +36°C° 0 mm 1 mps 712 mmHg 18%
    15:00 +37°C° 0 mm 2 mps 711 mmHg 20%
    16:00 +36°C° 0 mm 3 mps 711 mmHg 21%
    17:00 +36°C° 0 mm 4 mps 711 mmHg 22%
    18:00 +33°C° 0 mm 3 mps 711 mmHg 29%
    19:00 +29°C° 0 mm 3 mps 711 mmHg 36%
    20:00 +26°C° 0 mm 2 mps 712 mmHg 43%
    21:00 +26°C° 0 mm 2 mps 712 mmHg 44%
    22:00 +25°C° 0 mm 2 mps 712 mmHg 45%
    23:00 +24°C° 0 mm 2 mps 712 mmHg 46%

    Tomorrow, 21 February, Friday

    Time Temperature Precipitation Wind Pressure Humidity
    00:00 +24°C° 0 mm 2 mps 712 mmHg 46%
    01:00 +23°C° 0 mm 1 mps 711 mmHg 46%
    02:00 +23°C° 0 mm 1 mps 711 mmHg 46%
    03:00 +22°C° 0 mm 1 mps 711 mmHg 47%
    04:00 +22°C° 0 mm 1 mps 711 mmHg 47%
    05:00 +19°C° 0 mm 0 mps 711 mmHg 48%
    06:00 +21°C° 0 mm 0 mps 712 mmHg 44%
    07:00 +22°C° 0 mm 0 mps 713 mmHg 40%
    08:00 +26°C° 0 mm 1 mps 714 mmHg 36%
    09:00 +28°C° 0 mm 1 mps 714 mmHg 32%
    10:00 +30°C° 0 mm 1 mps 715 mmHg 28%
    11:00 +34°C° 0 mm 2 mps 715 mmHg 24%
    18:00 +33°C° 0 mm 3 mps 713 mmHg 26%
    19:00 +29°C° 0 mm 3 mps 713 mmHg 32%
    20:00 +27°C° 0 mm 2 mps 713 mmHg 38%
    21:00 +26°C° 0 mm 2 mps 713 mmHg 39%
    22:00 +25°C° 0 mm 2 mps 714 mmHg 40%
    23:00 +25°C° 0 mm 1 mps 714 mmHg 40%

    Day after tomorrow, 22 February, Saturday

    Time Temperature Precipitation Wind Pressure Humidity
    00:00 +24°C° 0 mm 1 mps 713 mmHg 41%
    01:00 +24°C° 0 mm 1 mps 713 mmHg 41%
    02:00 +21°C° 0 mm 0 mps 713 mmHg 41%
    03:00 +21°C° 0 mm 0 mps 712 mmHg 42%
    04:00 +20°C° 0 mm 0 mps 712 mmHg 42%
    05:00 +20°C° 0 mm 0 mps 712 mmHg 42%
    06:00 +24°C° 0 mm 1 mps 713 mmHg 39%
    07:00 +25°C° 0 mm 1 mps 714 mmHg 35%
    08:00 +27°C° 0 mm 2 mps 715 mmHg 32%
    09:00 +29°C° 0 mm 2 mps 715 mmHg 28%
    10:00 +31°C° 0 mm 2 mps 715 mmHg 25%
    11:00 +34°C° 0 mm 3 mps 715 mmHg 21%
    12:00 +35°C° 0 mm 2 mps 714 mmHg 19%
    13:00 +36°C° 0 mm 2 mps 714 mmHg 18%
    14:00 +36°C° 0 mm 1 mps 713 mmHg 16%
    15:00 +36°C° 0 mm 1 mps 713 mmHg 16%
    16:00 +36°C° 0 mm 1 mps 712 mmHg 16%
    17:00 +36°C° 0 mm 1 mps 712 mmHg 16%
    18:00 +34°C° 0 mm 2 mps 712 mmHg 22%
    19:00 +29°C° 0 mm 2 mps 712 mmHg 29%
    20:00 +26°C° 0 mm 2 mps 713 mmHg 35%
    21:00 +26°C° 0 mm 2 mps 713 mmHg 35%
    22:00 +25°C° 0 mm 2 mps 713 mmHg 36%
    23:00 +25°C° 0 mm 1 mps 713 mmHg 36%

    23 February, Sunday

    Time Temperature Precipitation Wind Pressure Humidity
    00:00 +24°C° 0 mm 1 mps 712 mmHg 36%
    01:00 +24°C° 0 mm 1 mps 712 mmHg 36%
    02:00 +23°C° 0 mm 1 mps 711 mmHg 35%
    03:00 +21°C° 0 mm 0 mps 711 mmHg 35%
    04:00 +20°C° 0 mm 0 mps 711 mmHg 35%
    05:00 +20°C° 0 mm 0 mps 711 mmHg 35%
    06:00 +22°C° 0 mm 0 mps 712 mmHg 31%
    07:00 +26°C° 0 mm 1 mps 713 mmHg 28%
    08:00 +28°C° 0 mm 1 mps 714 mmHg 25%
    09:00 +30°C° 0 mm 2 mps 714 mmHg 23%
    10:00 +32°C° 0 mm 2 mps 714 mmHg 20%
    11:00 +35°C° 0 mm 3 mps 714 mmHg 18%
    12:00 +36°C° 0 mm 3 mps 714 mmHg 17%
    13:00 +37°C° 0 mm 3 mps 713 mmHg 16%
    14:00 +38°C° 0 mm 2 mps 712 mmHg 16%
    15:00 +37°C° 0 mm 4 mps 712 mmHg 17%
    16:00 +36°C° 0 mm 5 mps 711 mmHg 19%
    17:00 +35°C° 0 mm 7 mps 711 mmHg 21%
    18:00 +33°C° 0 mm 5 mps 711 mmHg 26%
    19:00 +29°C° 0 mm 4 mps 711 mmHg 32%
    20:00 +26°C° 0 mm 2 mps 711 mmHg 37%
    21:00 +26°C° 0 mm 2 mps 711 mmHg 39%
    22:00 +25°C° 0 mm 2 mps 711 mmHg 40%
    23:00 +24°C° 0 mm 2 mps 711 mmHg 41%

    24 February, Monday

    Time Temperature Precipitation Wind Pressure Humidity
    00:00 +24°C° 0 mm 2 mps 711 mmHg 40%
    01:00 +23°C° 0 mm 2 mps 711 mmHg 38%
    02:00 +23°C° 0 mm 1 mps 710 mmHg 36%
    03:00 +22°C° 0 mm 1 mps 710 mmHg 37%
    04:00 +21°C° 0 mm 1 mps 710 mmHg 38%
    05:00 +19°C° 0 mm 0 mps 710 mmHg 39%
    06:00 +22°C° 0 mm 1 mps 711 mmHg 34%
    07:00 +24°C° 0 mm 1 mps 711 mmHg 28%
    08:00 +26°C° 0 mm 1 mps 712 mmHg 23%
    09:00 +28°C° 0 mm 1 mps 713 mmHg 20%
    10:00 +31°C° 0 mm 1 mps 713 mmHg 16%
    11:00 +31°C° 0 mm 0 mps 713 mmHg 13%
    12:00 +35°C° 0 mm 2 mps 712 mmHg 12%
    13:00 +36°C° 0 mm 3 mps 711 mmHg 11%
    14:00 +37°C° 0 mm 4 mps 710 mmHg 9%
    15:00 +36°C° 0 mm 5 mps 710 mmHg 11%
    16:00 +35°C° 0 mm 6 mps 710 mmHg 13%
    17:00 +34°C° 0 mm 6 mps 710 mmHg 15%
    18:00 +30°C° 0 mm 5 mps 710 mmHg 21%
    19:00 +27°C° 0 mm 4 mps 710 mmHg 27%
    20:00 +24°C° 0 mm 3 mps 710 mmHg 33%
    21:00 +22°C° 0 mm 3 mps 710 mmHg 35%
    22:00 +21°C° 0 mm 2 mps 710 mmHg 36%
    23:00 +21°C° 0 mm 2 mps 710 mmHg 38%

    25 February, Tuesday

    Time Temperature Precipitation Wind Pressure Humidity
    00:00 +20°C° 0 mm 2 mps 710 mmHg 38%
    01:00 +20°C° 0 mm 1 mps 709 mmHg 38%
    02:00 +20°C° 0 mm 1 mps 709 mmHg 39%
    03:00 +20°C° 0 mm 1 mps 709 mmHg 39%
    04:00 +20°C° 0 mm 1 mps 709 mmHg 40%
    05:00 +18°C° 0 mm 2 mps 709 mmHg 40%
    06:00 +20°C° 0 mm 2 mps 710 mmHg 37%
    07:00 +22°C° 0 mm 3 mps 711 mmHg 33%
    08:00 +25°C° 0 mm 4 mps 712 mmHg 30%
    09:00 +27°C° 0 mm 5 mps 712 mmHg 27%
    10:00 +29°C° 0 mm 6 mps 712 mmHg 23%
    11:00 +32°C° 0 mm 7 mps 712 mmHg 20%
    12:00 +33°C° 0 mm 7 mps 711 mmHg 18%
    13:00 +34°C° 0 mm 6 mps 710 mmHg 16%
    14:00 +35°C° 0 mm 5 mps 710 mmHg 13%
    15:00 +35°C° 0 mm 5 mps 709 mmHg 13%
    16:00 +35°C° 0 mm 5 mps 709 mmHg 13%
    17:00 +35°C° 0 mm 4 mps 709 mmHg 13%
    18:00 +32°C° 0 mm 4 mps 709 mmHg 16%
    19:00 +29°C° 0 mm 3 mps 710 mmHg 18%
    20:00 +26°C° 0 mm 3 mps 710 mmHg 21%
    21:00 +25°C° 0 mm 3 mps 710 mmHg 22%
    22:00 +25°C° 0 mm 3 mps 710 mmHg 22%
    23:00 +24°C° 0 mm 3 mps 710 mmHg 23%
    Show more